| time (UTC) | temp C | wind direction | speed KPH | gust KPH | rain 1hr cm | rain 24hr cm | rain mn cm | humidity % | barometer mb |
| 20260510153723 | 16 | 271 | 3.2 | 14.5 | 0.00 | 0.00 | 0.00 | 50 | 1017.8 |
| 20260510153224 | 15 | 299 | 0.0 | 6.4 | 0.00 | 0.00 | 0.00 | 49 | 1017.7 |
| 20260510152723 | 14 | 270 | 0.0 | 9.7 | 0.00 | 0.00 | 0.00 | 52 | 1017.7 |
| 20260510152223 | 13 | 343 | 4.8 | 6.4 | 0.00 | 0.00 | 0.00 | 59 | 1017.7 |
| 20260510151724 | 13 | 302 | 1.6 | 6.4 | 0.00 | 0.00 | 0.00 | 52 | 1017.7 |
| 20260510151224 | 13 | 315 | 3.2 | 9.7 | 0.00 | 0.00 | 0.00 | 58 | 1017.6 |
| 20260510150724 | 12 | 323 | 0.0 | 14.5 | 0.00 | 0.00 | 0.00 | 61 | 1017.6 |
| 20260510150224 | 12 | 247 | 0.0 | 1.6 | 0.00 | 0.00 | 0.00 | 63 | 1017.6 |
| 20260510145724 | 12 | 310 | 0.0 | 9.7 | 0.00 | 0.00 | 0.00 | 61 | 1017.5 |
| 20260510145224 | 12 | 53 | 1.6 | 3.2 | 0.00 | 0.00 | 0.00 | 57 | 1017.4 |
| 20260510144724 | 12 | 39 | 0.0 | 9.7 | 0.00 | 0.00 | 0.00 | 60 | 1017.4 |
| 20260510144224 | 12 | 331 | 0.0 | 9.7 | 0.00 | 0.00 | 0.00 | 63 | 1017.3 |
| 20260510143724 | 11 | 302 | 1.6 | 11.3 | 0.00 | 0.00 | 0.00 | 63 | 1017.2 |
| 20260510143224 | 11 | 11 | 0.0 | 9.7 | 0.00 | 0.00 | 0.00 | 61 | 1017.2 |
| 20260510142724 | 11 | 11 | 0.0 | 8.0 | 0.00 | 0.00 | 0.00 | 66 | 1017.2 |
| 20260510142224 | 11 | 12 | 1.6 | 8.0 | 0.00 | 0.00 | 0.00 | 65 | 1017.3 |
| 20260510141724 | 11 | 57 | 3.2 | 4.8 | 0.00 | 0.00 | 0.00 | 68 | 1017.2 |
| 20260510141224 | 11 | 175 | 0.0 | 4.8 | 0.00 | 0.00 | 0.00 | 61 | 1017.2 |
| 20260510140724 | 11 | 165 | 3.2 | 8.0 | 0.00 | 0.00 | 0.00 | 68 | 1017.1 |
| 20260510140224 | 11 | 358 | 4.8 | 4.8 | 0.00 | 0.00 | 0.00 | 67 | 1017.2 |
| 20260510135724 | 11 | 271 | 0.0 | 8.0 | 0.00 | 0.00 | 0.00 | 61 | 1017.1 |
| 20260510135224 | 10 | 292 | 0.0 | 3.2 | 0.00 | 0.00 | 0.00 | 65 | 1017.2 |
| 20260510134724 | 10 | 150 | 0.0 | 8.0 | 0.00 | 0.00 | 0.00 | 67 | 1017.2 |
| 20260510134224 | 10 | 270 | 0.0 | 8.0 | 0.00 | 0.00 | 0.00 | 70 | 1017.1 |
| 20260510133724 | 10 | 315 | 1.6 | 6.4 | 0.00 | 0.00 | 0.00 | 71 | 1017.1 |
| 20260510133224 | 10 | 267 | 0.0 | 8.0 | 0.00 | 0.00 | 0.00 | 71 | 1017.0 |
| 20260510132724 | 10 | 340 | 0.0 | 6.4 | 0.00 | 0.00 | 0.00 | 73 | 1017.0 |
| 20260510132224 | 10 | 15 | 1.6 | 8.0 | 0.00 | 0.00 | 0.00 | 72 | 1016.9 |
| 20260510131724 | 10 | 146 | 0.0 | 3.2 | 0.00 | 0.00 | 0.00 | 69 | 1016.8 |
| 20260510131224 | 10 | 40 | 0.0 | 6.4 | 0.00 | 0.00 | 0.00 | 71 | 1016.7 |
| 20260510130724 | 10 | 307 | 0.0 | 9.7 | 0.00 | 0.00 | 0.00 | 70 | 1016.7 |
| 20260510130224 | 9 | 87 | 0.0 | 9.7 | 0.00 | 0.00 | 0.00 | 71 | 1016.7 |
| 20260510125724 | 9 | 220 | 1.6 | 11.3 | 0.00 | 0.00 | 0.00 | 74 | 1016.6 |
| 20260510125224 | 9 | 322 | 8.0 | 8.0 | 0.00 | 0.00 | 0.00 | 74 | 1016.6 |
| 20260510124724 | 8 | 14 | 0.0 | 0.0 | 0.00 | 0.00 | 0.00 | 76 | 1016.5 |
| 20260510124224 | 8 | 14 | 0.0 | 0.0 | 0.00 | 0.00 | 0.00 | 78 | 1016.4 |
| 20260510123724 | 8 | 14 | 0.0 | 9.7 | 0.00 | 0.00 | 0.00 | 80 | 1016.3 |
| 20260510123224 | 8 | 312 | 3.2 | 8.0 | 0.00 | 0.00 | 0.00 | 77 | 1016.4 |
| 20260510122724 | 8 | 337 | 0.0 | 4.8 | 0.00 | 0.00 | 0.00 | 76 | 1016.3 |
| 20260510122224 | 8 | 348 | 0.0 | 6.4 | 0.00 | 0.00 | 0.00 | 79 | 1016.3 |
| 20260510121724 | 8 | 264 | 0.0 | 3.2 | 0.00 | 0.00 | 0.00 | 79 | 1016.3 |
| 20260510121224 | 8 | 329 | 0.0 | 8.0 | 0.00 | 0.00 | 0.00 | 78 | 1016.2 |
| 20260510120724 | 8 | 357 | 0.0 | 0.0 | 0.00 | 0.00 | 0.00 | 77 | 1016.2 |
| 20260510120224 | 8 | 357 | 0.0 | 0.0 | 0.00 | 0.00 | 0.00 | 77 | 1016.2 |
| 20260510115724 | 8 | 357 | 0.0 | 0.0 | 0.00 | 0.00 | 0.00 | 77 | 1016.0 |
| 20260510115224 | 8 | 357 | 0.0 | 0.0 | 0.00 | 0.00 | 0.00 | 78 | 1016.0 |
| 20260510114724 | 8 | 357 | 0.0 | 0.0 | 0.00 | 0.00 | 0.00 | 76 | 1015.9 |
| 20260510114224 | 7 | 56 | 0.0 | 0.0 | 0.00 | 0.00 | 0.00 | 79 | 1015.7 |
| 20260510113724 | 7 | 56 | 0.0 | 0.0 | 0.00 | 0.00 | 0.00 | 80 | 1015.7 |
| 20260510113224 | 7 | 56 | 0.0 | 0.0 | 0.00 | 0.00 | 0.00 | 82 | 1015.6 |
| 20260510112724 | 6 | 56 | 0.0 | 1.6 | 0.00 | 0.00 | 0.00 | 83 | 1015.5 |
| 20260510112224 | 6 | 56 | 0.0 | 0.0 | 0.00 | 0.00 | 0.00 | 83 | 1015.4 |
| 20260510111724 | 6 | 56 | 0.0 | 0.0 | 0.00 | 0.00 | 0.00 | 86 | 1015.3 |
| 20260510111224 | 6 | 56 | 0.0 | 0.0 | 0.00 | 0.00 | 0.00 | 87 | 1015.2 |
| 20260510110724 | 5 | 56 | 0.0 | 0.0 | 0.00 | 0.00 | 0.00 | 88 | 1015.0 |
| 20260510110224 | 5 | 56 | 0.0 | 0.0 | 0.00 | 0.00 | 0.00 | 88 | 1015.0 |
| 20260510105724 | 5 | 56 | 0.0 | 0.0 | 0.00 | 0.00 | 0.00 | 88 | 1015.0 |
| 20260510105224 | 5 | 56 | 0.0 | 0.0 | 0.00 | 0.00 | 0.00 | 88 | 1015.0 |
| 20260510104724 | 5 | 56 | 0.0 | 0.0 | 0.00 | 0.00 | 0.00 | 88 | 1014.9 |
| 20260510104224 | 5 | 56 | 0.0 | 0.0 | 0.00 | 0.00 | 0.00 | 88 | 1014.7 |
| 20260510103724 | 5 | 56 | 0.0 | 0.0 | 0.00 | 0.00 | 0.00 | 88 | 1014.7 |
| 20260510103224 | 5 | 56 | 0.0 | 0.0 | 0.00 | 0.00 | 0.00 | 87 | 1014.6 |
| 20260510102724 | 5 | 56 | 0.0 | 0.0 | 0.00 | 0.00 | 0.00 | 87 | 1014.6 |
| 20260510102224 | 5 | 56 | 0.0 | 0.0 | 0.00 | 0.00 | 0.00 | 87 | 1014.7 |
| 20260510101724 | 5 | 56 | 0.0 | 0.0 | 0.00 | 0.00 | 0.00 | 87 | 1014.7 |
| 20260510101224 | 5 | 56 | 0.0 | 0.0 | 0.00 | 0.00 | 0.00 | 87 | 1014.7 |
| 20260510100724 | 6 | 56 | 0.0 | 0.0 | 0.00 | 0.00 | 0.00 | 87 | 1014.6 |
| 20260510100224 | 5 | 56 | 0.0 | 0.0 | 0.00 | 0.00 | 0.00 | 87 | 1014.6 |
| 20260510095724 | 5 | 56 | 0.0 | 0.0 | 0.00 | 0.00 | 0.00 | 87 | 1014.5 |
| 20260510095224 | 6 | 56 | 0.0 | 0.0 | 0.00 | 0.00 | 0.00 | 87 | 1014.4 |
| 20260510094724 | 6 | 56 | 0.0 | 0.0 | 0.00 | 0.00 | 0.00 | 86 | 1014.3 |
| 20260510094224 | 6 | 56 | 0.0 | 0.0 | 0.00 | 0.00 | 0.00 | 86 | 1014.2 |
| 20260510093724 | 6 | 56 | 0.0 | 0.0 | 0.00 | 0.00 | 0.00 | 86 | 1014.1 |
| 20260510093224 | 6 | 56 | 0.0 | 0.0 | 0.00 | 0.00 | 0.00 | 85 | 1014.0 |
| 20260510092724 | 6 | 56 | 0.0 | 0.0 | 0.00 | 0.00 | 0.00 | 85 | 1013.9 |
| 20260510092224 | 6 | 56 | 0.0 | 0.0 | 0.00 | 0.00 | 0.00 | 85 | 1013.8 |
| 20260510091724 | 6 | 56 | 0.0 | 0.0 | 0.00 | 0.00 | 0.00 | 85 | 1013.7 |
| 20260510091224 | 6 | 56 | 0.0 | 0.0 | 0.00 | 0.00 | 0.00 | 84 | 1013.6 |
| 20260510090724 | 6 | 56 | 0.0 | 0.0 | 0.00 | 0.00 | 0.00 | 84 | 1013.6 |
| 20260510090224 | 6 | 56 | 0.0 | 0.0 | 0.00 | 0.00 | 0.00 | 83 | 1013.5 |
| 20260510085724 | 6 | 56 | 0.0 | 0.0 | 0.00 | 0.00 | 0.00 | 82 | 1013.4 |
| 20260510085224 | 7 | 56 | 0.0 | 0.0 | 0.00 | 0.00 | 0.00 | 82 | 1013.2 |
| 20260510084724 | 7 | 56 | 0.0 | 0.0 | 0.00 | 0.00 | 0.00 | 81 | 1013.2 |
| 20260510084224 | 7 | 56 | 0.0 | 0.0 | 0.00 | 0.00 | 0.00 | 81 | 1013.0 |
| 20260510083724 | 7 | 56 | 0.0 | 0.0 | 0.00 | 0.00 | 0.00 | 80 | 1012.9 |
| 20260510083224 | 7 | 56 | 0.0 | 0.0 | 0.00 | 0.00 | 0.00 | 81 | 1012.8 |
| 20260510082724 | 7 | 56 | 0.0 | 0.0 | 0.00 | 0.00 | 0.00 | 80 | 1012.7 |
| 20260510082224 | 7 | 56 | 0.0 | 0.0 | 0.00 | 0.00 | 0.00 | 80 | 1012.6 |
| 20260510081724 | 7 | 56 | 0.0 | 0.0 | 0.00 | 0.00 | 0.00 | 79 | 1012.6 |
| 20260510081224 | 7 | 56 | 0.0 | 0.0 | 0.00 | 0.00 | 0.00 | 79 | 1012.5 |
| 20260510080724 | 7 | 56 | 0.0 | 0.0 | 0.00 | 0.00 | 0.00 | 79 | 1012.4 |
| 20260510080224 | 7 | 56 | 0.0 | 0.0 | 0.00 | 0.00 | 0.00 | 79 | 1012.3 |
| 20260510075724 | 7 | 56 | 0.0 | 0.0 | 0.00 | 0.00 | 0.00 | 79 | 1012.1 |
| 20260510075224 | 7 | 56 | 0.0 | 0.0 | 0.00 | 0.00 | 0.00 | 78 | 1012.0 |
| 20260510074724 | 7 | 56 | 0.0 | 0.0 | 0.00 | 0.00 | 0.00 | 79 | 1011.9 |
| 20260510074224 | 8 | 56 | 0.0 | 8.0 | 0.00 | 0.00 | 0.00 | 77 | 1011.8 |
| 20260510073724 | 8 | 303 | 0.0 | 0.0 | 0.00 | 0.00 | 0.00 | 77 | 1011.7 |
| 20260510073224 | 8 | 303 | 0.0 | 3.2 | 0.00 | 0.00 | 0.00 | 77 | 1011.6 |
| 20260510072724 | 8 | 151 | 0.0 | 4.8 | 0.00 | 0.00 | 0.00 | 77 | 1011.4 |
| 20260510072224 | 8 | 36 | 0.0 | 6.4 | 0.00 | 0.00 | 0.00 | 75 | 1011.5 |
| 20260510071724 | 8 | 21 | 0.0 | 12.9 | 0.00 | 0.00 | 0.00 | 76 | 1011.4 |
| 20260510071224 | 8 | 223 | 0.0 | 14.5 | 0.00 | 0.00 | 0.00 | 75 | 1011.4 |
| 20260510070724 | 8 | 255 | 0.0 | 11.3 | 0.00 | 0.00 | 0.00 | 74 | 1011.4 |
| 20260510070224 | 8 | 331 | 4.8 | 9.7 | 0.00 | 0.00 | 0.00 | 73 | 1011.2 |
| 20260510065724 | 8 | 264 | 1.6 | 9.7 | 0.00 | 0.00 | 0.00 | 72 | 1011.3 |
| 20260510065224 | 8 | 158 | 4.8 | 9.7 | 0.00 | 0.00 | 0.00 | 72 | 1011.3 |
| 20260510064724 | 8 | 236 | 0.0 | 11.3 | 0.00 | 0.00 | 0.00 | 73 | 1011.2 |
| 20260510064224 | 8 | 254 | 1.6 | 11.3 | 0.00 | 0.00 | 0.00 | 75 | 1011.2 |
| 20260510063725 | 9 | 118 | 0.0 | 14.5 | 0.00 | 0.00 | 0.00 | 77 | 1011.3 |
| 20260510063225 | 10 | 233 | 3.2 | 9.7 | 0.00 | 0.00 | 0.00 | 76 | 1011.1 |
| 20260510062725 | 10 | 2 | 0.0 | 9.7 | 0.00 | 0.00 | 0.00 | 77 | 1010.9 |
| 20260510062225 | 10 | 327 | 3.2 | 9.7 | 0.00 | 0.00 | 0.00 | 76 | 1011.0 |
| 20260510061725 | 10 | 354 | 3.2 | 3.2 | 0.00 | 0.00 | 0.00 | 76 | 1010.9 |
| 20260510061225 | 10 | 75 | 0.0 | 4.8 | 0.00 | 0.00 | 0.00 | 75 | 1010.8 |
| 20260510060725 | 10 | 171 | 0.0 | 11.3 | 0.00 | 0.00 | 0.00 | 76 | 1010.6 |
| 20260510060225 | 10 | 243 | 0.0 | 8.0 | 0.00 | 0.00 | 0.00 | 77 | 1010.6 |
| 20260510055725 | 10 | 348 | 0.0 | 6.4 | 0.00 | 0.00 | 0.00 | 75 | 1010.5 |
| 20260510055225 | 10 | 8 | 0.0 | 1.6 | 0.00 | 0.00 | 0.00 | 75 | 1010.5 |
| 20260510054725 | 10 | 133 | 0.0 | 3.2 | 0.00 | 0.00 | 0.00 | 75 | 1010.4 |
| 20260510054225 | 10 | 140 | 0.0 | 1.6 | 0.00 | 0.00 | 0.00 | 74 | 1010.4 |
| 20260510053725 | 11 | 92 | 0.0 | 0.0 | 0.00 | 0.00 | 0.00 | 75 | 1010.4 |
| 20260510053225 | 11 | 92 | 0.0 | 0.0 | 0.00 | 0.00 | 0.00 | 74 | 1010.3 |
| 20260510052725 | 11 | 92 | 0.0 | 0.0 | 0.00 | 0.00 | 0.00 | 75 | 1010.0 |
| 20260510052225 | 11 | 92 | 0.0 | 0.0 | 0.00 | 0.00 | 0.00 | 74 | 1010.2 |
| 20260510051725 | 11 | 92 | 0.0 | 3.2 | 0.00 | 0.00 | 0.00 | 76 | 1009.9 |
| 20260510051225 | 11 | 326 | 0.0 | 0.0 | 0.00 | 0.00 | 0.00 | 74 | 1009.7 |
| 20260510050725 | 11 | 326 | 0.0 | 0.0 | 0.00 | 0.00 | 0.00 | 75 | 1009.7 |
| 20260510050225 | 11 | 326 | 0.0 | 0.0 | 0.00 | 0.00 | 0.00 | 75 | 1009.7 |
| 20260510045725 | 11 | 326 | 0.0 | 0.0 | 0.00 | 0.00 | 0.00 | 76 | 1009.6 |
| 20260510045225 | 11 | 326 | 0.0 | 0.0 | 0.00 | 0.00 | 0.00 | 76 | 1009.5 |
| 20260510044725 | 11 | 326 | 0.0 | 0.0 | 0.00 | 0.00 | 0.00 | 76 | 1009.5 |
| 20260510044225 | 11 | 326 | 0.0 | 0.0 | 0.00 | 0.00 | 0.00 | 77 | 1009.6 |
| 20260510043725 | 11 | 319 | 0.0 | 1.6 | 0.00 | 0.00 | 0.00 | 76 | 1009.6 |
| 20260510043225 | 11 | 60 | 0.0 | 0.0 | 0.00 | 0.00 | 0.00 | 75 | 1009.4 |
| 20260510042725 | 11 | 60 | 0.0 | 3.2 | 0.00 | 0.00 | 0.00 | 75 | 1009.4 |
| 20260510042225 | 11 | 115 | 0.0 | 0.0 | 0.00 | 0.00 | 0.00 | 77 | 1009.4 |
| 20260510041725 | 11 | 115 | 0.0 | 1.6 | 0.00 | 0.00 | 0.00 | 75 | 1009.3 |
| 20260510041225 | 11 | 222 | 0.0 | 0.0 | 0.00 | 0.00 | 0.00 | 72 | 1009.3 |
| 20260510040725 | 12 | 222 | 0.0 | 0.0 | 0.00 | 0.00 | 0.00 | 72 | 1009.6 |
| 20260510040225 | 12 | 222 | 0.0 | 3.2 | 0.00 | 0.00 | 0.00 | 71 | 1009.2 |
| 20260510035725 | 12 | 317 | 0.0 | 9.7 | 0.00 | 0.00 | 0.00 | 70 | 1009.2 |
| 20260510035225 | 12 | 334 | 1.6 | 4.8 | 0.00 | 0.00 | 0.00 | 70 | 1009.1 |
| 20260510034725 | 12 | 299 | 0.0 | 3.2 | 0.00 | 0.00 | 0.00 | 70 | 1009.0 |
| 20260510034225 | 12 | 222 | 0.0 | 6.4 | 0.00 | 0.00 | 0.00 | 70 | 1008.9 |
| 20260510033725 | 12 | 120 | 0.0 | 6.4 | 0.00 | 0.00 | 0.00 | 70 | 1009.0 |
| 20260510033225 | 12 | 122 | 3.2 | 8.0 | 0.00 | 0.00 | 0.00 | 70 | 1008.9 |
| 20260510032725 | 12 | 292 | 1.6 | 6.4 | 0.00 | 0.00 | 0.00 | 69 | 1008.8 |
| 20260510032225 | 12 | 293 | 1.6 | 12.9 | 0.00 | 0.00 | 0.00 | 69 | 1008.7 |
| 20260510031725 | 12 | 352 | 4.8 | 11.3 | 0.00 | 0.00 | 0.00 | 67 | 1008.6 |
| 20260510031225 | 13 | 220 | 0.0 | 9.7 | 0.00 | 0.00 | 0.00 | 67 | 1008.4 |
| 20260510030725 | 13 | 202 | 0.0 | 6.4 | 0.00 | 0.00 | 0.00 | 68 | 1008.3 |
| 20260510030225 | 13 | 125 | 0.0 | 8.0 | 0.00 | 0.00 | 0.00 | 66 | 1008.1 |
| 20260510025725 | 13 | 282 | 1.6 | 8.0 | 0.00 | 0.00 | 0.00 | 68 | 1008.7 |
| 20260510025225 | 13 | 338 | 0.0 | 8.0 | 0.00 | 0.00 | 0.00 | 67 | 1008.3 |
| 20260510024725 | 14 | 203 | 0.0 | 6.4 | 0.00 | 0.00 | 0.00 | 65 | 1007.8 |
| 20260510024225 | 14 | 5 | 0.0 | 9.7 | 0.00 | 0.00 | 0.00 | 65 | 1007.5 |
| 20260510023725 | 14 | 227 | 3.2 | 3.2 | 0.00 | 0.00 | 0.00 | 78 | 1007.2 |
| 20260510023225 | 14 | 292 | 0.0 | 0.0 | 0.00 | 0.00 | 0.00 | 77 | 1006.8 |
| 20260510022725 | 14 | 292 | 0.0 | 0.0 | 0.00 | 0.00 | 0.00 | 76 | 1006.7 |
| 20260510022225 | 14 | 292 | 0.0 | 0.0 | 0.00 | 0.00 | 0.00 | 77 | 1006.6 |
| 20260510021725 | 14 | 292 | 0.0 | 0.0 | 0.00 | 0.00 | 0.00 | 75 | 1006.6 |
| 20260510021225 | 15 | 292 | 0.0 | 0.0 | 0.00 | 0.00 | 0.00 | 75 | 1006.5 |
| 20260510020725 | 15 | 292 | 0.0 | 0.0 | 0.00 | 0.00 | 0.00 | 75 | 1006.5 |
| 20260510020225 | 15 | 292 | 0.0 | 0.0 | 0.00 | 0.00 | 0.00 | 75 | 1006.4 |
| 20260510015725 | 15 | 292 | 0.0 | 0.0 | 0.00 | 0.00 | 0.00 | 73 | 1006.3 |
| 20260510015225 | 15 | 292 | 0.0 | 0.0 | 0.00 | 0.00 | 0.00 | 75 | 1006.2 |
| 20260510014725 | 15 | 292 | 0.0 | 0.0 | 0.00 | 0.00 | 0.00 | 73 | 1006.0 |
| 20260510014225 | 15 | 292 | 0.0 | 0.0 | 0.00 | 0.00 | 0.00 | 76 | 1006.0 |
| 20260510013725 | 15 | 292 | 0.0 | 0.0 | 0.00 | 0.00 | 0.00 | 76 | 1005.8 |
| 20260510013225 | 15 | 292 | 0.0 | 0.0 | 0.00 | 0.00 | 0.00 | 76 | 1005.8 |
| 20260510012725 | 15 | 292 | 0.0 | 0.0 | 0.00 | 0.00 | 0.00 | 76 | 1005.6 |
| 20260510012225 | 15 | 292 | 0.0 | 0.0 | 0.00 | 0.00 | 0.00 | 75 | 1005.4 |
| 20260510011727 | 15 | 292 | 0.0 | 0.0 | 0.00 | 0.00 | 0.00 | 75 | 1005.4 |
| 20260510011225 | 15 | 292 | 0.0 | 0.0 | 0.00 | 0.00 | 0.00 | 75 | 1005.2 |
| 20260510010725 | 15 | 292 | 0.0 | 0.0 | 0.00 | 0.00 | 0.00 | 74 | 1005.1 |
| 20260510010225 | 16 | 292 | 0.0 | 0.0 | 0.00 | 0.00 | 0.00 | 73 | 1005.0 |
| 20260510005725 | 16 | 292 | 0.0 | 0.0 | 0.00 | 0.00 | 0.00 | 72 | 1004.9 |
| 20260510005225 | 16 | 292 | 0.0 | 0.0 | 0.00 | 0.00 | 0.00 | 71 | 1004.8 |
| 20260510004725 | 16 | 292 | 0.0 | 0.0 | 0.00 | 0.00 | 0.00 | 70 | 1004.7 |
| 20260510004225 | 16 | 292 | 0.0 | 0.0 | 0.00 | 0.00 | 0.00 | 71 | 1004.7 |
| 20260510003725 | 16 | 292 | 0.0 | 0.0 | 0.00 | 0.00 | 0.00 | 70 | 1004.7 |
| 20260510003225 | 16 | 292 | 0.0 | 0.0 | 0.00 | 0.00 | 0.00 | 69 | 1004.7 |
| 20260510002725 | 17 | 292 | 0.0 | 6.4 | 0.00 | 0.00 | 0.00 | 71 | 1004.6 |
| 20260510002225 | 17 | 334 | 0.0 | 4.8 | 0.00 | 0.00 | 0.00 | 73 | 1004.6 |
| 20260510001725 | 17 | 347 | 0.0 | 6.4 | 0.00 | 0.00 | 0.00 | 74 | 1004.6 |
| 20260510001225 | 17 | 350 | 0.0 | 3.2 | 0.00 | 0.00 | 0.00 | 74 | 1004.7 |
| 20260510000725 | 17 | 317 | 0.0 | 8.0 | 0.00 | 0.00 | 0.00 | 73 | 1004.6 |
| 20260510000226 | 17 | 247 | 0.0 | 3.2 | 0.00 | 0.00 | 0.00 | 74 | 1004.6 |
| 20260509235725 | 17 | 225 | 0.0 | 3.2 | 0.00 | 0.00 | 0.00 | 74 | 1004.5 |
| 20260509235225 | 17 | 251 | 1.6 | 6.4 | 0.00 | 0.00 | 0.00 | 74 | 1004.5 |
| 20260509234725 | 17 | 210 | 0.0 | 0.0 | 0.00 | 0.00 | 0.00 | 74 | 1004.4 |
| 20260509234225 | 17 | 210 | 0.0 | 0.0 | 0.00 | 0.00 | 0.00 | 73 | 1004.3 |
| 20260509233725 | 17 | 210 | 0.0 | 0.0 | 0.00 | 0.00 | 0.00 | 72 | 1004.1 |
| 20260509233225 | 17 | 210 | 0.0 | 0.0 | 0.00 | 0.00 | 0.00 | 72 | 1004.0 |
| 20260509232725 | 17 | 210 | 0.0 | 0.0 | 0.00 | 0.00 | 0.00 | 71 | 1003.9 |
| 20260509232225 | 17 | 210 | 0.0 | 0.0 | 0.00 | 0.00 | 0.00 | 72 | 1003.8 |
| 20260509231725 | 17 | 210 | 0.0 | 0.0 | 0.00 | 0.00 | 0.00 | 71 | 1003.8 |
| 20260509231225 | 17 | 210 | 0.0 | 1.6 | 0.00 | 0.00 | 0.00 | 70 | 1003.8 |
| 20260509230725 | 17 | 210 | 0.0 | 4.8 | 0.00 | 0.00 | 0.00 | 70 | 1003.7 |
| 20260509230225 | 17 | 198 | 0.0 | 6.4 | 0.00 | 0.00 | 0.00 | 69 | 1003.7 |
| 20260509225725 | 17 | 209 | 0.0 | 8.0 | 0.00 | 0.00 | 0.00 | 68 | 1003.7 |
| 20260509225225 | 17 | 327 | 1.6 | 3.2 | 0.00 | 0.00 | 0.00 | 70 | 1003.6 |
| 20260509224725 | 18 | 229 | 0.0 | 8.0 | 0.00 | 0.00 | 0.00 | 67 | 1003.6 |
| 20260509224225 | 17 | 220 | 0.0 | 6.4 | 0.00 | 0.00 | 0.00 | 69 | 1003.5 |
| 20260509223725 | 17 | 302 | 3.2 | 8.0 | 0.00 | 0.00 | 0.00 | 69 | 1003.5 |
| 20260509223225 | 17 | 341 | 1.6 | 11.3 | 0.00 | 0.00 | 0.00 | 71 | 1003.4 |
| 20260509222725 | 17 | 212 | 1.6 | 8.0 | 0.00 | 0.00 | 0.00 | 70 | 1003.3 |
| 20260509222225 | 17 | 219 | 0.0 | 9.7 | 0.00 | 0.00 | 0.00 | 72 | 1003.2 |
| 20260509221725 | 17 | 4 | 0.0 | 8.0 | 0.00 | 0.00 | 0.00 | 72 | 1003.1 |
| 20260509221225 | 17 | 241 | 0.0 | 11.3 | 0.00 | 0.00 | 0.00 | 74 | 1002.9 |
| 20260509220725 | 17 | 227 | 1.6 | 12.9 | 0.00 | 0.00 | 0.00 | 72 | 1002.9 |
| 20260509220226 | 17 | 267 | 0.0 | 9.7 | 0.00 | 0.00 | 0.00 | 73 | 1002.9 |
| 20260509215725 | 17 | 123 | 0.0 | 9.7 | 0.00 | 0.00 | 0.00 | 69 | 1002.9 |
| 20260509215226 | 17 | 251 | 6.4 | 6.4 | 0.00 | 0.00 | 0.00 | 74 | 1002.9 |
| 20260509214726 | 17 | 322 | 3.2 | 8.0 | 0.00 | 0.00 | 0.00 | 75 | 1002.9 |
| 20260509214226 | 17 | 250 | 0.0 | 8.0 | 0.00 | 0.00 | 0.00 | 76 | 1002.9 |
| 20260509213726 | 17 | 286 | 0.0 | 9.7 | 0.00 | 0.00 | 0.00 | 76 | 1002.9 |
| 20260509213226 | 16 | 208 | 0.0 | 11.3 | 0.00 | 0.00 | 0.00 | 78 | 1002.9 |
| 20260509212726 | 17 | 331 | 0.0 | 6.4 | 0.00 | 0.00 | 0.00 | 78 | 1002.9 |
| 20260509212226 | 16 | 150 | 1.6 | 11.3 | 0.00 | 0.00 | 0.00 | 81 | 1002.9 |
| 20260509211726 | 16 | 302 | 0.0 | 9.7 | 0.00 | 0.00 | 0.00 | 83 | 1002.9 |
| 20260509211226 | 16 | 333 | 1.6 | 6.4 | 0.00 | 0.00 | 0.00 | 85 | 1002.9 |
| 20260509210726 | 15 | 156 | 0.0 | 3.2 | 0.00 | 0.00 | 0.00 | 83 | 1003.1 |
| 20260509210226 | 15 | 105 | 0.0 | 4.8 | 0.00 | 0.00 | 0.00 | 85 | 1002.9 |
| 20260509205726 | 15 | 182 | 0.0 | 4.8 | 0.00 | 0.00 | 0.00 | 86 | 1002.8 |
| 20260509205226 | 15 | 270 | 0.0 | 1.6 | 0.00 | 0.00 | 0.00 | 85 | 1002.8 |
| 20260509204726 | 15 | 102 | 0.0 | 3.2 | 0.00 | 0.00 | 0.00 | 85 | 1002.7 |
| 20260509204226 | 15 | 208 | 3.2 | 4.8 | 0.00 | 0.00 | 0.00 | 84 | 1003.3 |
| 20260509203726 | 15 | 284 | 0.0 | 9.7 | 0.00 | 0.00 | 0.00 | 83 | 1003.2 |
| 20260509203226 | 15 | 323 | 0.0 | 9.7 | 0.00 | 0.00 | 0.00 | 84 | 1003.2 |
| 20260509202726 | 15 | 354 | 4.8 | 6.4 | 0.00 | 0.00 | 0.00 | 83 | 1003.2 |
| 20260509202226 | 15 | 257 | 3.2 | 17.7 | 0.00 | 0.00 | 0.00 | 82 | 1003.7 |
| 20260509201726 | 16 | 300 | 8.0 | 27.4 | 0.00 | 0.00 | 0.00 | 81 | 1003.9 |
| 20260509201226 | 16 | 307 | 9.7 | 30.6 | 0.00 | 0.00 | 0.00 | 83 | 1002.8 |
| 20260509200726 | 17 | 188 | 17.7 | 17.7 | 0.00 | 0.00 | 0.00 | 69 | 1002.3 |
| 20260509200226 | 18 | 260 | 4.8 | 17.7 | 0.00 | 0.00 | 0.00 | 65 | 1002.5 |
| 20260509195726 | 18 | 303 | 3.2 | 19.3 | 0.00 | 0.00 | 0.00 | 66 | 1002.5 |
| 20260509195226 | 18 | 255 | 8.0 | 12.9 | 0.00 | 0.00 | 0.00 | 66 | 1002.4 |
| 20260509194726 | 18 | 223 | 0.0 | 14.5 | 0.00 | 0.00 | 0.00 | 66 | 1002.3 |
| 20260509194226 | 18 | 278 | 4.8 | 16.1 | 0.00 | 0.00 | 0.00 | 66 | 1002.4 |
| 20260509193726 | 18 | 184 | 1.6 | 17.7 | 0.00 | 0.00 | 0.00 | 65 | 1002.5 |
| 20260509193226 | 18 | 234 | 6.4 | 19.3 | 0.00 | 0.00 | 0.00 | 64 | 1002.7 |
| 20260509192726 | 18 | 257 | 4.8 | 22.5 | 0.00 | 0.00 | 0.00 | 63 | 1002.8 |
| 20260509192226 | 19 | 236 | 6.4 | 14.5 | 0.00 | 0.00 | 0.00 | 61 | 1003.1 |
| 20260509191726 | 19 | 233 | 8.0 | 16.1 | 0.00 | 0.00 | 0.00 | 61 | 1003.1 |
| 20260509191226 | 19 | 210 | 4.8 | 27.4 | 0.00 | 0.00 | 0.00 | 62 | 1003.0 |
| 20260509190726 | 19 | 267 | 11.3 | 22.5 | 0.00 | 0.00 | 0.00 | 64 | 1003.0 |
| 20260509190226 | 18 | 248 | 9.7 | 19.3 | 0.00 | 0.00 | 0.00 | 64 | 1003.0 |
| 20260509185726 | 18 | 254 | 17.7 | 25.7 | 0.00 | 0.00 | 0.00 | 66 | 1002.9 |
| 20260509185226 | 18 | 209 | 1.6 | 22.5 | 0.00 | 0.00 | 0.00 | 66 | 1002.9 |
| 20260509184726 | 18 | 157 | 0.0 | 27.4 | 0.00 | 0.00 | 0.00 | 67 | 1002.9 |
| 20260509184226 | 18 | 253 | 12.9 | 17.7 | 0.00 | 0.00 | 0.00 | 66 | 1002.8 |
| 20260509183726 | 18 | 146 | 3.2 | 19.3 | 0.00 | 0.00 | 0.00 | 69 | 1002.8 |
| 20260509183226 | 18 | 201 | 11.3 | 27.4 | 0.00 | 0.00 | 0.00 | 69 | 1003.0 |
| 20260509182726 | 17 | 215 | 4.8 | 22.5 | 0.00 | 0.00 | 0.00 | 69 | 1003.1 |
| 20260509182226 | 17 | 201 | 9.7 | 24.1 | 0.00 | 0.00 | 0.00 | 71 | 1003.0 |
| 20260509181726 | 17 | 267 | 12.9 | 16.1 | 0.00 | 0.00 | 0.00 | 72 | 1003.0 |
| 20260509181226 | 17 | 240 | 4.8 | 20.9 | 0.00 | 0.00 | 0.00 | 73 | 1003.1 |
| 20260509180726 | 17 | 219 | 11.3 | 17.7 | 0.00 | 0.00 | 0.00 | 71 | 1003.1 |
| 20260509180226 | 17 | 137 | 6.4 | 24.1 | 0.00 | 0.00 | 0.00 | 69 | 1003.4 |
| 20260509175726 | 17 | 267 | 6.4 | 20.9 | 0.00 | 0.00 | 0.00 | 70 | 1003.3 |
| 20260509175226 | 17 | 185 | 6.4 | 19.3 | 0.00 | 0.00 | 0.00 | 68 | 1003.4 |
| 20260509174726 | 18 | 222 | 14.5 | 17.7 | 0.00 | 0.00 | 0.00 | 65 | 1003.3 |
| 20260509174226 | 18 | 192 | 1.6 | 20.9 | 0.00 | 0.00 | 0.00 | 66 | 1003.5 |
| 20260509173726 | 18 | 230 | 6.4 | 14.5 | 0.00 | 0.00 | 0.00 | 69 | 1003.5 |
| 20260509173226 | 17 | 232 | 12.9 | 20.9 | 0.00 | 0.00 | 0.00 | 70 | 1003.5 |
| 20260509172726 | 17 | 241 | 16.1 | 20.9 | 0.00 | 0.00 | 0.00 | 71 | 1003.7 |
| 20260509172226 | 18 | 257 | 6.4 | 17.7 | 0.00 | 0.00 | 0.00 | 67 | 1003.7 |
| 20260509171726 | 18 | 264 | 6.4 | 16.1 | 0.00 | 0.00 | 0.00 | 68 | 1003.7 |
| 20260509171226 | 18 | 196 | 8.0 | 17.7 | 0.00 | 0.00 | 0.00 | 65 | 1003.6 |
| 20260509170726 | 18 | 217 | 4.8 | 22.5 | 0.00 | 0.00 | 0.00 | 68 | 1003.7 |
| 20260509170226 | 19 | 32 | 3.2 | 14.5 | 0.00 | 0.00 | 0.00 | 63 | 1003.7 |
| 20260509165726 | 18 | 260 | 8.0 | 12.9 | 0.00 | 0.00 | 0.00 | 64 | 1003.7 |
| 20260509165226 | 17 | 284 | 4.8 | 19.3 | 0.00 | 0.00 | 0.00 | 70 | 1003.8 |
| 20260509164726 | 17 | 196 | 0.0 | 16.1 | 0.00 | 0.00 | 0.00 | 72 | 1003.9 |
| 20260509164226 | 17 | 232 | 8.0 | 12.9 | 0.00 | 0.00 | 0.00 | 72 | 1004.0 |
| 20260509163726 | 18 | 229 | 8.0 | 14.5 | 0.00 | 0.00 | 0.00 | 69 | 1004.0 |
| 20260509163226 | 17 | 255 | 1.6 | 16.1 | 0.00 | 0.00 | 0.00 | 69 | 1004.0 |
| 20260509162726 | 17 | 206 | 6.4 | 16.1 | 0.00 | 0.00 | 0.00 | 68 | 1004.1 |
| 20260509162226 | 17 | 232 | 4.8 | 14.5 | 0.00 | 0.00 | 0.00 | 70 | 1004.1 |
| 20260509161726 | 17 | 106 | 0.0 | 12.9 | 0.00 | 0.00 | 0.00 | 70 | 1004.1 |
| 20260509161226 | 17 | 205 | 1.6 | 16.1 | 0.00 | 0.00 | 0.00 | 69 | 1004.3 |
| 20260509160726 | 17 | 202 | 4.8 | 17.7 | 0.00 | 0.00 | 0.00 | 69 | 1004.3 |
| 20260509160226 | 17 | 223 | 8.0 | 14.5 | 0.00 | 0.00 | 0.00 | 68 | 1004.4 |
| 20260509155726 | 18 | 8 | 0.0 | 12.9 | 0.00 | 0.00 | 0.00 | 70 | 1004.4 |
| 20260509155226 | 17 | 140 | 1.6 | 17.7 | 0.00 | 0.00 | 0.00 | 70 | 1004.6 |
| 20260509154726 | 17 | 272 | 0.0 | 20.9 | 0.00 | 0.00 | 0.00 | 71 | 1004.6 |
| 20260509154226 | 17 | 129 | 4.8 | 14.5 | 0.00 | 0.00 | 0.00 | 70 | 1004.6 |